www.pogodaiklimat.ru

Погода и климат >> Архив погоды >> Норвегия >> Krakenes


ПОГОДА в Krakenes

  • Прогноз погоды в Krakenes
  • Монитор погоды в Krakenes
  • Климат города

АРХИВ ПОГОДЫ в Krakenes

Время (UTC), дата Ветер
(напр.,м/с)
 
Видим.   Явления Облачность Т
(С)
Тd
(С)
f
(%)
Тe
(С)
Тes
(С)
Комфортность P
(гПа)
Po
(гПа)
Тmin
(С)
Tmax
(С)
R
(мм)
R24
(мм)
S
(см)
16 9.08
{12}
н/о н/о +15.4 1012.4 1007.7
17 9.08 С 10
{14}
н/о н/о +15.1 +13 +13 1012.2 1007.5
18 9.08
{14}
н/о н/о +14.8 1012.3 1007.5 +14.1 +17.6
19 9.08 С 11
{14}
н/о н/о +14.3 +12 +12 1012.5 1007.7
20 9.08
{14}
н/о н/о +14.0 1012.6 1007.8
21 9.08 С 10
{13}
н/о н/о +13.9 +12 +12 1012.7 1007.9
22 9.08 С 9
{11}
н/о н/о +13.9 +12 +12 1013.4 1008.6
23 9.08 С 8
{10}
н/о н/о +13.7 +12 +12 1013.5 1008.7
00 10.08 С 7
{14}
н/о н/о +13.5 +12 +12 1014.0 1009.2
01 10.08 СЗ 4
{7}
н/о н/о +13.6 +13 +13 1014.1 1009.3
02 10.08 З 6
{7}
н/о н/о +13.4 +12 +12 1014.4 1009.6
03 10.08 ЮЗ 5
{7}
н/о н/о +13.6 +12 +12 1014.2 1009.4
04 10.08 ЮЗ 7
{8}
н/о н/о +13.7 +12 +12 1013.9 1009.1
05 10.08 Ю 12
{15}
н/о н/о +13.1 +10 +10 1013.4 1008.6
06 10.08 Ю 14
{16}
н/о н/о +13.4 +10 +10 1012.8 1008.0 +13.0 +14.8
07 10.08 Ю 11
{19}
н/о н/о +12.2 +9 +9 1013.6 1008.8
08 10.08 Ю 15 н/о н/о +13.5 1013.3 1008.5
09 10.08 ЮЗ 14
{17}
н/о н/о +14.0 +11 +11 1013.2 1008.4
10 10.08 ЮЗ 11
{15}
н/о н/о +12.7 +10 +10 1013.6 1008.8
11 10.08 Ю 16
{19}
н/о н/о +13.5 +10 +10 1013.2 1008.4
12 10.08 Ю 16
{20}
н/о н/о +13.6 +10 +10 1013.2 1008.4
13 10.08 Ю 17
{20}
н/о н/о +13.6 +10 +10 1012.6 1007.8
14 10.08 Ю 18
{21}
н/о н/о +13.9 +11 +11 1011.8 1007.0
15 10.08 Ю 18
{22}
н/о н/о +13.8 +10 +10 1011.6 1006.8
16 10.08 Ю 21
{23}
н/о н/о +14.1 +11 +11 1011.2 1006.4
17 10.08 Ю 20 н/о н/о +14.3 1010.9 1006.1
18 10.08 Ю 20
{25}
н/о н/о +13.8 +10 +10 1010.5 1005.7 +11.8 +14.4
19 10.08 Ю 20
{25}
н/о н/о +13.2 +9 +9 1010.7 1005.9
20 10.08 Ю 21
{24}
н/о н/о +13.3 +10 +10 1010.6 1005.8
21 10.08 Ю 22
{25}
н/о н/о +13.5 +10 +10 1010.4 1005.6
22 10.08 Ю 23
{26}
н/о н/о +13.7 +10 +10 1010.0 1005.2
23 10.08 Ю 22
{27}
н/о н/о +14.4 +11 +11 1009.2 1004.5
00 11.08 Ю 19
{27}
н/о н/о +14.3 +11 +11 1009.2 1004.5
01 11.08 Ю 19
{24}
н/о н/о +14.0 +11 +11 1007.9 1003.2
02 11.08 Ю 20
{28}
н/о н/о +13.1 +9 +9 1007.6 1002.8
03 11.08 Ю 18
{26}
н/о н/о +14.2 +11 +11 1006.7 1002.0
04 11.08 Ю 18
{26}
н/о н/о +14.2 +11 +11 1005.3 1000.6
05 11.08 Ю 22
{28}
н/о н/о +13.9 +10 +10 1004.1 999.4
06 11.08 Ю 20
{29}
н/о н/о +14.5 +11 +11 1002.9 998.2 +12.9 +14.6
07 11.08 Ю 22
{28}
н/о н/о +14.1 +11 +11 1003.3 998.6
08 11.08 Ю 20
{27}
н/о н/о +14.6 +11 +11 1002.8 998.1
09 11.08 Ю 22
{29}
н/о н/о +14.6 +11 +11 1002.6 997.9
10 11.08 Ю 24
{30}
н/о н/о +14.4 +11 +11 1001.7 997.0
11 11.08 Ю 22
{31}
н/о н/о +14.3 +11 +11 1002.3 997.6
12 11.08 Ю 22
{31}
н/о н/о +14.3 +11 +11 1002.3 997.6
13 11.08 Ю 21
{30}
н/о н/о +14.4 +11 +11 1001.6 996.9
14 11.08 Ю 19
{33}
н/о н/о +13.9 +11 +11 1001.5 996.8
15 11.08 Ю 22
{28}
н/о н/о +14.2 +11 +11 999.9 995.2
16 11.08 Ю 19
{28}
н/о н/о +13.9 +11 +11 999.7 995.0
17 11.08 Ю 19
{26}
н/о н/о +13.9 +11 +11 999.6 994.9
18 11.08 Ю 18
{33}
н/о н/о +14.1 999.1 994.4 +14.8
19 11.08 Ю 17
{26}
н/о н/о +14.1 +11 +11 998.6 993.9
20 11.08 Ю 19
{25}
н/о н/о +14.1 +11 +11 998.8 994.1
21 11.08 Ю 21
{25}
н/о н/о +14.3 +11 +11 997.9 993.2
22 11.08 Ю 23
{27}
н/о н/о +14.6 +11 +11 997.5 992.8
23 11.08 Ю 19
{27}
н/о н/о +14.2 +11 +11 997.8 993.1
00 12.08 Ю 19
{27}
н/о н/о +14.4 +11 +11 998.2 993.5
01 12.08 ЮЗ 16
{22}
н/о н/о +13.3 +10 +10 998.3 993.6
02 12.08 ЮЗ 14
{21}
н/о н/о +12.8 +10 +10 998.7 994.0
03 12.08 ЮЗ 13
{16}
н/о н/о +13.0 +10 +10 999.2 994.5
04 12.08 СЗ 10
{14}
н/о н/о +11.3 +8 +8 1001.2 996.4
05 12.08 С 8
{12}
н/о н/о +11.2 +9 +9 1002.3 997.5
06 12.08 С 6
{22}
н/о н/о +11.3 +9 +9 1003.1 998.3 +11.0 +14.8
07 12.08 С 3
{6}
н/о н/о +11.7 +11 +11 1004.0 999.2
08 12.08 СЗ 5 н/о н/о +12.7 1004.7 1000.0
09 12.08 СЗ 5
{7}
н/о н/о +12.7 +11 +11 1005.5 1000.7
10 12.08 С 6
{7}
н/о н/о +12.8 +11 +11 1006.2 1001.4
11 12.08 С 7
{9}
н/о н/о +13.5 +12 +12 1006.8 1002.1
12 12.08 С 7
{9}
н/о н/о +13.2 +11 +11 1007.6 1002.8
13 12.08 СЗ 6
{10}
н/о н/о +13.6 +12 +12 1007.8 1003.1
14 12.08 СЗ 6
{8}
н/о н/о +13.6 +12 +12 1008.2 1003.4
15 12.08 СЗ 6
{9}
н/о н/о +13.2 +12 +12 1008.5 1003.7
16 12.08 СЗ 5
{8}
н/о н/о +13.1 +12 +12 1008.7 1003.9
17 12.08 СЗ 5
{7}
н/о н/о +13.1 +12 +12 1008.9 1004.1
18 12.08 СЗ 5
{10}
н/о н/о +12.2 +11 +11 1009.0 1004.2 +11.2 +14.3
19 12.08 СЗ 4
{7}
н/о н/о +12.0 +11 +11 1009.2 1004.4
20 12.08 СЗ 5
{6}
н/о н/о +11.6 +10 +10 1009.6 1004.8
21 12.08 З 4
{6}
н/о н/о +11.6 +10 +10 1009.6 1004.8
22 12.08 З 4
{6}
н/о н/о +11.6 +10 +10 1009.5 1004.7
23 12.08 ЮЗ 4
{7}
н/о н/о +11.6 +10 +10 1009.4 1004.6
00 13.08 З 6
{8}
н/о н/о +11.6 +10 +10 1009.5 1004.7
01 13.08 З 8
{9}
н/о н/о +11.7 +9 +9 1009.3 1004.5
02 13.08 З 8
{10}
н/о н/о +11.6 +9 +9 1009.3 1004.5
03 13.08 ЮЗ 9
{10}
н/о н/о +11.6 +9 +9 1009.1 1004.3
04 13.08 ЮЗ 7
{11}
н/о н/о +11.3 +9 +9 1009.1 1004.3
05 13.08 ЮЗ 12
{16}
н/о н/о +10.7 +7 +7 1008.5 1003.7
06 13.08 ЮЗ 12
{18}
н/о н/о +11.9 +9 +9 1008.6 1003.8 +10.0 +12.4
07 13.08 ЮЗ 14
{21}
н/о н/о +12.1 +9 +9 1008.6 1003.8
08 13.08 ЮЗ 16
{20}
н/о н/о +11.5 +8 +8 1008.8 1004.0
09 13.08 Ю 12
{19}
н/о н/о +11.2 +8 +8 1009.9 1005.1
10 13.08 ЮЗ 18
{22}
н/о н/о +9.9 +5 +5 1009.1 1004.3
11 13.08 Ю 15
{17}
н/о н/о +12.1 +9 +9 1010.0 1005.2
12 13.08 ЮЗ 15
{22}
н/о н/о +12.6 +9 +9 1010.1 1005.3
13 13.08 ЮЗ 12
{16}
н/о н/о +12.3 +9 +9 1010.9 1006.1
14 13.08 ЮЗ 11
{14}
н/о н/о +13.0 +10 +10 1012.1 1007.3
15 13.08 ЮЗ 9
{12}
н/о н/о +13.1 +11 +11 1012.9 1008.1
16 13.08 ЮЗ 9
{11}
н/о н/о +13.3 +11 +11 1013.4 1008.6
17 13.08 ЮЗ 9
{11}
н/о н/о +13.1 +11 +11 1013.7 1008.9
18 13.08 ЮЗ 10
{16}
н/о н/о +12.9 +10 +10 1014.1 1009.3 +9.9 +13.6
19 13.08 ЮЗ 10
{12}
н/о н/о +12.7 +10 +10 1014.4 1009.6
20 13.08 ЮЗ 10
{12}
н/о н/о +12.5 +10 +10 1014.9 1010.1
21 13.08 ЮЗ 11
{12}
н/о н/о +12.5 +10 +10 1015.1 1010.3
22 13.08 ЮЗ 10
{12}
н/о н/о +12.5 +10 +10 1015.6 1010.8
23 13.08 ЮЗ 9
{11}
н/о н/о +12.5 +10 +10 1015.9 1011.1
00 14.08 ЮЗ 9
{12}
н/о н/о +12.2 +10 +10 1016.1 1011.3
01 14.08 ЮЗ 9
{11}
н/о н/о +12.3 +10 +10 1016.2 1011.4
02 14.08 ЮЗ 9
{11}
н/о н/о +12.5 +10 +10 1016.4 1011.6
03 14.08 Ю 8
{13}
н/о н/о +12.0 +10 +10 1016.5 1011.7
04 14.08 ЮЗ 11
{13}
н/о н/о +12.4 +10 +10 1016.3 1011.5
05 14.08 Ю 11
{15}
н/о н/о +11.8 +9 +9 1016.9 1012.1
06 14.08 Ю 12
{15}
н/о н/о +12.3 +9 +9 1017.3 1012.5 +11.1 +12.9
07 14.08 Ю 10
{13}
н/о н/о +12.2 +9 +9 1018.1 1013.3
08 14.08 Ю 12
{13}
н/о н/о +12.6 +10 +10 1018.2 1013.4
09 14.08 Ю 13
{16}
н/о н/о +12.5 +9 +9 1018.6 1013.8
10 14.08 Ю 12
{14}
н/о н/о +12.2 +9 +9 1019.1 1014.3
11 14.08 Ю 11
{15}
н/о н/о +12.1 +9 +9 1019.6 1014.8
12 14.08 Ю 7
{16}
н/о н/о +12.9 +11 +11 1019.9 1015.1
13 14.08 Ю 9
{14}
н/о н/о +13.3 +11 +11 1019.9 1015.1
14 14.08 Ю 11
{12}
н/о н/о +14.2 +12 +12 1019.8 1015.0
15 14.08 Ю 10
{15}
н/о н/о +13.5 +11 +11 1019.8 1015.0
16 14.08 Ю 7
{13}
н/о н/о +13.5 +12 +12 1019.6 1014.8
17 14.08 Ю 7
{10}
н/о н/о +14.1 +12 +12 1019.2 1014.4
18 14.08 Ю 5
{15}
н/о н/о +14.2 +13 +13 1019.3 1014.5 +11.1 +14.3
19 14.08 ЮВ 5
{10}
н/о н/о +14.1 +13 +13 1019.1 1014.3
20 14.08 ЮВ 4
{8}
н/о н/о +14.1 +13 +13 1019.0 1014.2
21 14.08 В 3
{6}
н/о н/о +13.9 +13 +13 1018.9 1014.1
22 14.08 В 3
{4}
н/о н/о +13.4 +13 +13 1018.7 1013.9
23 14.08 В 5
{6}
н/о н/о +13.6 +12 +12 1018.2 1013.4
00 15.08 ЮВ 3
{10}
н/о н/о +14.2 +14 +14 1017.7 1012.9
01 15.08 В 4
{6}
н/о н/о +13.8 +13 +13 1016.8 1012.0
02 15.08 В 4
{7}
н/о н/о +13.3 +12 +12 1016.3 1011.5
03 15.08 ЮВ 3
{6}
н/о н/о +13.9 +13 +13 1015.9 1011.1
04 15.08 ЮВ 6
{12}
н/о н/о +14.0 +13 +13 1015.6 1010.8
05 15.08 Ю 9
{15}
н/о н/о +14.6 +13 +13 1014.7 1009.9
06 15.08 Ю 6
{16}
н/о н/о +14.7 +13 +13 1014.8 1010.0 +13.2 +14.8
07 15.08 В 5
{12}
н/о н/о +14.7 +14 +14 1014.4 1009.6
08 15.08 ЮВ 5
{11}
н/о н/о +15.6 +15 +15 1013.6 1008.9
09 15.08 ЮВ 3
{11}
н/о н/о +15.9 +16 +16 1013.3 1008.6
10 15.08 ЮВ 3
{11}
н/о н/о +16.3 +16 +16 1012.8 1008.1
11 15.08 В 4
{9}
н/о н/о +15.3 +15 +15 1012.0 1007.3
12 15.08 В 7
{12}
н/о н/о +15.5 +14 +14 1011.1 1006.4
13 15.08 В 4
{9}
н/о н/о +15.9 +15 +15 1010.8 1006.1
14 15.08 В 5
{11}
н/о н/о +15.5 +15 +15 1009.8 1005.1
15 15.08 В 6
{10}
н/о н/о +16.7 +16 +16 1008.5 1003.8
16 15.08 ЮВ 5
{16}
н/о н/о +17.8 +17 +17 1007.5 1002.8
17 15.08 ЮВ 7
{23}
н/о н/о +17.3 +16 +16 1007.4 1002.7
18 15.08 Ю 18
{23}
н/о н/о +14.4 +11 +11 1007.5 1002.8 +13.8 +18.1
19 15.08 Ю 14
{20}
н/о н/о +14.0 +11 +11 1008.9 1004.2
20 15.08 Ю 11
{15}
н/о н/о +14.1 +12 +12 1009.7 1004.9
21 15.08 Ю 11
{14}
н/о н/о +13.8 +11 +11 1010.0 1005.2
22 15.08 Ю 11
{14}
н/о н/о +13.8 +11 +11 1010.2 1005.4
23 15.08 Ю 7
{12}
н/о н/о +13.9 +12 +12 1010.7 1005.9
00 16.08 Ю 11
{20}
н/о н/о +13.8 +11 +11 1010.5 1005.7
01 16.08 Ю 13
{15}
н/о н/о +13.4 +11 +11 1010.3 1005.5
02 16.08 Ю 11
{13}
н/о н/о +13.7 +11 +11 1010.5 1005.7
03 16.08 Ю 12
{13}
н/о н/о +13.6 +11 +11 1010.3 1005.5
04 16.08 Ю 11
{12}
н/о н/о +13.8 +11 +11 1010.6 1005.8
05 16.08 Ю 8
{11}
н/о н/о +13.9 +12 +12 1010.9 1006.1
06 16.08 Ю 9
{15}
н/о н/о +13.7 +12 +12 1010.8 1006.0 +13.3 +14.4
07 16.08 Ю 10
{14}
н/о н/о +13.7 +11 +11 1010.7 1005.9
08 16.08 Ю 16
{20}
н/о н/о +13.4 +10 +10 1010.7 1005.9
09 16.08 Ю 8
{16}
н/о н/о +12.7 +11 +11 1012.3 1007.5
10 16.08 Ю 13
{15}
н/о н/о +13.9 +11 +11 1012.2 1007.4
11 16.08 Ю 14
{15}
н/о н/о +14.2 +11 +11 1012.7 1007.9
12 16.08 Ю 15
{20}
н/о н/о +14.1 +11 +11 1012.7 1007.9
13 16.08 Ю 16
{18}
н/о н/о +14.3 +11 +11 1012.9 1008.1
14 16.08 Ю 15
{19}
н/о н/о +14.1 +11 +11 1013.1 1008.3
15 16.08 Ю 15
{19}
н/о н/о +14.1 +11 +11 1013.4 1008.6
16 16.08 Ю 15
{19}
н/о н/о +14.4 +12 +12 1013.4 1008.6

 

Местоположение метеостанции Krakenes (Норвегия): широта 62.03 долгота 4.99 высота над уровнем моря 75 м.

В архиве по умолчанию представлена погода в Krakenes за последнюю неделю. Архивные данные за месяц целиком и за предыдущие месяцы, начиная с января 2011 года, Вы можете получить, выбрав интересующий диапазон дат из раскрывающегося списка и нажав кнопку "Ввод!".

Внимание! Время в таблицах - всемирное. Для получения местного времени необходимо прибавить поправку, которая в Krakenes равна 1 ч.

Смотрите также архив погоды в соседних городах и на ближайших метеорологических станциях:

Погода в Bergen Lufthavn (Норвегия) (31 км)
Погода в Fiskabygd (Норвегия) (32 км)
Погода в Svinoy Fyr (Норвегия) (36 км)
Погода в Floro Lifthavn (Норвегия) (50 км)
Погода в Ytteroyane Fyr (Норвегия) (54 км)
Погода в Orsta-Volda Lufthavn (Норвегия) (59 км)
Погода в Sandane Lufthavn (Норвегия) (62 км)
Погода в Forde Tefre (Норвегия) (79 км)
Погода в Alesund IV (Норвегия) (80 км)
Погода в Forde Lifthavn (Норвегия) (82 км)

Пояснения к столбцам:

Ветер - указаны скорость ветра в м/с - средняя за 10 мин, порывы в срок и между сроками (в фигурных скобках) и направление, откуда дует ветер: С - северный, СВ - северо-восточный, В - восточный, ЮВ - юго-восточный, Ю - южный, ЮЗ - юго-западный, З - западный, СЗ - северо-западный.
Видимость - горизонтальная дальность видимости в метрах или километрах. При видимости от 1 до 10 км при отсутствии осадков обычно наблюдается дымка, при ухудшении видимости до 1 км и менее - туман. В сухую погоду видимость может ухудшаться дымом, пылью или мглою.
Явления - указаны атмосферные явления, наблюдавшиеся в срок или в последний час перед сроком; фигурными скобками обозначены явления, наблюдавшиеся между сроками (за 1-3 часа до срока); квадратными скобками обозначены град или гололедные отложения с указанием их диаметра в мм.
Облачность - указаны через наклонную черту общая и нижняя облачность в баллах и высота нижней границы облаков в метрах; квадратными скобками обозначены формы облаков: Ci - перистые, Cs - перисто-слоистые, Cc - перисто-кучевые, Ac - высококучевые, As - высокослоистые, Sc - слоисто-кучевые, Ns - слоисто-дождевые, Cu - кучевые, Cb - кучево-дождевые. Подробнее классификацию облаков см. в Атласе облаков (PDF).
T - Температура воздуха - температура, измеренная на высоте 2 м над землей.
Td - Температура точки росы - температура, при понижении до которой содержащийся в воздухе водяной пар достигнет насыщения.
f - Относительная влажность воздуха - влажноcть воздуха, измеренная на высоте 2 м над землей.
Te - Эффективная температура - температура, которую ощущает одетый по сезону человек в тени. Характеристика душности погоды. При расчете учитывается влияние влажности воздуха и скорости ветра на теплоощущения человека.
Tes - Эффективная температура на солнце - температура, которую ощущает человек, с поправкой на солнечный нагрев. Характеристика знойности погоды. Зависит от высоты солнца над горизонтом, облачности и скорости ветра. Ночью, в пасмурную погоду, а также при ветре 12 м/с и более поправка равна нулю.
P - Атмосферное давление - приведенное к уровню моря атмосферное давление.
Po - Атмосферное давление - измеренное на уровне метеостанции атмосферное давление.
Tmin - Минимальная температура - минимум температуры воздуха на высоте 2 м над землей.
Tmax - Максимальная температура - максимум температуры воздуха на высоте 2 м над землей.
R - Количество осадков - Количество выпавших осадков за период времени, мм. При наведении курсора мыши на число - период времени, за который выпало указанное количество осадков.
R24 - Количество осадков - Количество выпавших осадков за 24 часа, мм.
S - Снежный покров - Высота снежного покрова, см. При наведении курсора мыши на число - состояние снежного покрова и степень покрытия местности в баллах.